This is the latest recevied weather packets stored in our database for station/object KC4JIR. If no packets are shown the sender has not sent any weather packets the latest 10 day(s).
| Time | Temp. | Humidity | Pressure | Rain* | Wind** | Luminosity | Snow |
|---|---|---|---|---|---|---|---|
| 1788374680 | 33.89° C | 63% | 1015.1 hPa | 0 mm | - | 403 W/m² | - |
| 1788374375 | 33.89° C | 63% | 1015.3 hPa | 0 mm | - | 403 W/m² | - |
| 1788374072 | 33.89° C | 66% | 1015.3 hPa | 0 mm | - | 380 W/m² | - |
| 1788373767 | 34.44° C | 62% | 1015.2 hPa | 0 mm | - | 225 W/m² | - |
| 1788373464 | 34.44° C | 62% | 1015.4 hPa | 0 mm | - | 225 W/m² | - |
| 1788373159 | 34.44° C | 60% | 1015.2 hPa | 0 mm | - | 260 W/m² | - |
| 1788372855 | 35° C | 59% | 1015.2 hPa | 0 mm | - | 426 W/m² | - |
| 1788372549 | 35.56° C | 60% | 1015.2 hPa | 0 mm | - | 626 W/m² | - |
| 1788372244 | 35.56° C | 60% | 1015.2 hPa | 0 mm | - | 626 W/m² | - |
| 1788371940 | 35.56° C | 57% | 1015.3 hPa | 0 mm | - | 613 W/m² | - |
| 1788371635 | 35.56° C | 58% | 1015.4 hPa | 0 mm | - | 638 W/m² | - |
| 1788371330 | 35° C | 59% | 1015.6 hPa | 0 mm | - | 705 W/m² | - |
| 1788371028 | 35° C | 59% | 1015.6 hPa | 0 mm | - | 705 W/m² | - |
| 1788370723 | 34.44° C | 60% | 1015.6 hPa | 0 mm | - | 695 W/m² | - |
| 1788370422 | 33.89° C | 62% | 1015.7 hPa | 0 mm | - | 672 W/m² | - |
| 1788370117 | 33.89° C | 62% | 1015.9 hPa | 0 mm | - | 705 W/m² | - |
| 1788367987 | 33.89° C | 63% | 1016.6 hPa | 0 mm | - | 767 W/m² | - |
| 1788367707 | 33.89° C | 63% | 1016.4 hPa | 0 mm | - | 767 W/m² | - |
| 1788367071 | 33.89° C | 61% | 1016.6 hPa | 0 mm | - | 708 W/m² | - |
| 1788366765 | 33.89° C | 61% | 1016.9 hPa | 0 mm | - | 708 W/m² | - |
| 1788366464 | 33.89° C | 61% | 1016.4 hPa | 0 mm | - | 708 W/m² | - |
| 1788366158 | 33.33° C | 65% | 1016.5 hPa | 0 mm | - | 759 W/m² | - |
| 1788365853 | 33.33° C | 67% | 1016.5 hPa | 0 mm | - | 782 W/m² | - |
| 1788365549 | 32.78° C | 66% | 1016.7 hPa | 0 mm | - | 799 W/m² | - |
| 1788365246 | 32.78° C | 70% | 1016.6 hPa | 0 mm | - | 798 W/m² | - |
* Rain latest hour (hover to see other rain measurements)
** Current wind speed in m/s (hover to see current wind gust speed)